Location: Luna
(33.8188°N, 108.9564°W)
Time: 21:13:56
(UTC+00:00)

BlueWalker 3 - Pass Details

Date: 09 December 2022
Orbit: 499 x 517 km, 53.2° (Epoch: 07 February)

Event Time Altitude Azimuth Distance (km) Brightness Sun altitude
Rises 01:22:08 0° 329° (NNW) 2,620 5.8 -15.2°
Reaches altitude 10° 01:24:58 10° 350° (N) 1,727 4.6 -15.8°
Enters shadow 01:26:46 16° 17° (NNE) 1,381 3.8 -16.2°
